Regional Weather Roundup
Issued by NWS

Home | Current Version | Previous Version | Text Only | Print | Product List | Glossary Off
Versions: 1 2 3 4 5 6 7 8 9 10 11 12 13 14 15 16 17 18 19 20 21 22 23 24 25 26 27 28 29 30 31 32 33 34 35 36 37 38 39 40 41 42 43 44 45 46 47 48 49 50

000
ASUS45 KBOU 010707
RWRCO

WEATHER ROUNDUP FOR COLORADO
NATIONAL WEATHER SERVICE DENVER/BOULDER CO
1200 AM MST SUN MAR 01 2015

NOTE: "FAIR" INDICATES FEW OR NO CLOUDS BELOW 12000 FEET WITH NO
SIGNIFICANT WEATHER AND/OR OBSTRUCTIONS TO VISIBILITY.

COZ001>005-013-030-031-010800-
...NORTHWEST COLORADO...

CITY           SKY/WX    TMP DP  RH WIND       PRES   REMARKS
CRAIG          LGT SNOW  25  22  88 VRB5      29.93R VSB 1   WCI  19
HAYDEN         CLOUDY    27  25  93 W9        29.89R WCI  17
MEEKER         CLOUDY    30  27  88 NE3       29.90R
MOUNT WERNER   NOT AVBL
STEAMBOAT SPGS CLOUDY    26  25  96 CALM      29.87R
WALDEN         CLOUDY    18  14  86 N5        29.85R WCI  11
$$

COZ006>008-011-010800-
...WEST CENTRAL VALLEYS...

CITY           SKY/WX    TMP DP  RH WIND       PRES   REMARKS
GRAND JUNCTION PTCLDY    30  28  92 S3        29.92R
MONTROSE       MOCLDY    30  28  92 SE8       29.96S WCI  22
EAGLE          CLOUDY    30  28  93 NE8       29.92R WCI  23
RIFLE          CLOUDY    32  26  78 SE5       29.91R WCI  27
DELTA          CLOUDY    35  33  91 N6        29.96R WCI  30
NUCLA          LGT SNOW  32  32 100 NW5       30.00R WCI  27
$$

COZ017>023-064>068-010800-
...SOUTHWEST COLORADO...

CITY           SKY/WX    TMP DP  RH WIND       PRES   REMARKS
DURANGO        LGT SNOW  30  29  96 CALM      29.98S FOG
CORTEZ         CLOUDY    28  26  92 E3        29.97R
PAGOSA SPRINGS LGT SNOW  30  30 100 SW3       29.99R
TELLURIDE      CLOUDY    28  20  71 W3        29.98R
WOLF CREEK PAS CLOUDY    18  18 100 SW41G47   29.93F WCI  -5
$$

COZ009-010-012-014-032>034-037-058>063-010800-
...CENTRAL COLORADO...

CITY           SKY/WX    TMP DP  RH WIND       PRES   REMARKS
ASPEN          LGT SNOW  27  25  92 NW3       29.90R FOG
BUENA VISTA    FLURRIES  21  18  88 CALM      29.91R
COPPER MTN     LGT SNOW  19  12  73 W26       29.84R VSB 1   WCI   1
BERTHOUD PASS  LGT SNOW  10   3  72 W14       29.83S VSB 1   WCI  -5
COTTONWOOD PAS LGT SNOW  23  19  86 SE6       29.87R WCI  16
GUNNISON       CLOUDY    25  19  80 E7        29.98R VSB 3/4 WCI  17
KREMMLING      CLOUDY    19  18  93 N3        29.88R
LEADVILLE      SNOW      17  14  88 E3        29.87R VSB 1/2
SALIDA         MOCLDY    18  14  84 SE6       30.00R WCI  10
SUNLIGHT       LGT SNOW  21  19  93 CALM        N/A
WILKERSON PASS CLOUDY    16  12  86 SW7       29.88R FOG     WCI   6
$$

COZ069>075-010800-
...SAN LUIS VALLEY/SANGRE DE CRISTO MOUNTAINS...

CITY           SKY/WX    TMP DP  RH WIND       PRES   REMARKS
ALAMOSA        LGT SNOW  23  21  92 NW6       29.96R FOG     WCI  16
LA VETA PASS   LGT SNOW  27  23  86 S21G41    29.90R WCI  13
SAGUACHE       CLEAR     21  16  79 NW6       29.96R WCI  14
$$

COZ035-036-038>040-010800-
...NORTHERN COLORADO FRONT RANGE...

CITY           SKY/WX    TMP DP  RH WIND       PRES   REMARKS
DENVER INTL AP MOCLDY    11   7  84 CALM      29.99F
DMNS CITY PARK   N/A     17  13  81 E2        30.00S
AURORA         PTCLDY    14  10  84 S2        29.98F
FRONT RANGE AP NOT AVBL
ERIE MUNI ARPT PTCLDY    15  14  95 CALM      30.01F FOG
BOULDER MUN AP CLOUDY    19  19 100 CALM      30.01R FOG
CENTENNIAL     PTCLDY    10   7  87 SE3       29.97S
BROOMFIELD     PTCLDY    19  18  93 CALM      29.99S
FORT COLLINS   MOCLDY    18  12  79 CALM      30.03R
LONGMONT       CLOUDY    19  17  90 CALM      30.05R FOG
$$

COZ041-046-047-076>085-087-088-010800-
...PIKES PEAK/PALMER DIVIDE AND SOUTHERN FOOTHILLS...

CITY           SKY/WX    TMP DP  RH WIND       PRES   REMARKS
COLO. SPRINGS  CLOUDY    15  12  88 CALM      29.99R FOG
A. F. ACADEMY  MOCLDY    10   7  85 NW2       29.96R
ELLICOTT       NOT AVBL
FALCON         LGT SNOW  14  12  92 SW7       29.95R WCI   4
FORT CARSON    PTCLDY    12   9  87 S3        29.98R
LIMON          PTCLDY     5   3  91 N6        30.01R WCI  -6
MONUMENT HILL  PTCLDY     9   5  85 SW5       29.91S WCI   0
TRINIDAD       CLOUDY    17  13  84 E3        29.99F
$$

COZ042>045-048>051-090-091-010800-
...NORTHEAST COLORADO...

CITY           SKY/WX    TMP DP  RH WIND       PRES   REMARKS
GREELEY ARPT   MOCLDY    18  10  73 E3        30.03R
AKRON          MOCLDY    18  14  84 CALM      30.04R
BURLINGTON     CLOUDY    19  13  77 S8        30.08F WCI   9
WRAY           PTCLDY    18  15  86 CALM      30.13R
STERLING       CLOUDY    23  18  80 S3        30.08S
HOLYOKE        NOT AVBL
FORT MORGAN    PTCLDY    18  15  88 E3        30.06S
$$

COZ086-089-092>099-010800-
...SOUTHEAST COLORADO...

CITY           SKY/WX    TMP DP  RH WIND       PRES   REMARKS
PUEBLO         PTCLDY    12   9  87 NW5       30.05S WCI   4
LA JUNTA       PTCLDY    15  10  80 CALM      30.09S
LAMAR          CLOUDY    20  17  88 S3        30.09F
SPRINGFIELD      N/A     13  11  92 NW5       30.06F WCI   5
$$


USA.gov is the U.S. government's official web portal to all federal, state and local government web resources and services.